QPF
0.00 0.00 0.00 0.00 0.00 0.00 0.00 0.00 0.00 0.00 0.00 0.00 0.00 0.00 0.00 0.00 0.00 0.00 0.00 0.00 0.00 0.00 0.00 0.00 0.00 0.00 0.00 0.00 0.00 0.00 0.00 0.00 0.00 0.00 0.00 0.00 0.00 0.00 0.00 0.00 0.00 0.00 0.00
0.00 0.00 0.00 0.00 0.00 0.00 0.00 0.00 0.00 0.00 0.00 0.00 0.00 0.00 0.00 0.00 0.00 0.00 0.00 0.00 0.00 0.00 0.00 0.00 0.00 0.00 0.00 0.00 0.00 0.00 0.00 0.00 0.00 0.00 0.00 0.00 0.00 0.00 0.00 0.00 0.00 0.00 0.00
0.00 0.00 0.00 0.00 0.00 0.00 0.00 0.00 0.00 0.00 0.00 0.00 0.00 0.00 0.00 0.00 0.00 0.00 0.00 0.00 0.00 0.00 0.00 0.00 0.00 0.00 0.00 0.00 0.00 0.00 0.00 0.00 0.00 0.00 0.00 0.00 0.00 0.00 0.00 0.00 0.00 0.00 0.00
0.00 0.00 0.00 0.00 0.00 0.00 0.00 0.00 0.00 0.00 0.00 0.00 0.00 0.00 0.00 0.00 0.00 0.00 0.00 0.00 0.00 0.00 0.00 0.00 0.00 0.00 0.00 0.00 0.00 0.00 0.00 0.00 0.00 0.00 0.00 0.00 0.00 0.00 0.00 0.00 0.00 0.00 0.00
0.00 0.00 0.00 0.00 0.00 0.00 0.00 0.00 0.00 0.00 0.00 0.00 0.00 0.00 0.00 0.00 0.00 0.00 0.00 0.00 0.00 0.00 0.00 0.00 0.00 0.00 0.00 0.00 0.00 0.00 0.00 0.00 0.00 0.00 0.00 0.00 0.00 0.00 0.00 0.00 0.00 0.00 0.00
0.00 0.00 0.00 0.00 0.00 0.00 0.00 0.00 0.00 0.00 0.00 0.00 0.00 0.00 0.00 0.00 0.00 0.00 0.00 0.00 0.00 0.00 0.00 0.00 0.00 0.00 0.00 0.00 0.00 0.00 0.00 0.00 0.00 0.00 0.00 0.00 0.00 0.00 0.00 0.00 0.00 0.00 0.00
0.00 0.00 0.00 0.00 0.00 0.00 0.00 0.00 0.00 0.00 0.00 0.00 0.00 0.00 0.00 0.00 0.00 0.00 0.00 0.00 0.00 0.00 0.00 0.00 0.00 0.00 0.00 0.00 0.00 0.00 0.00 0.00 0.00 0.00 0.00 0.00 0.00 0.00 0.00 0.00 0.00 0.01 0.01
0.00 0.00 0.00 0.00 0.00 0.00 0.00 0.00 0.00 0.00 0.00 0.00 0.00 0.00 0.00 0.00 0.00 0.00 0.00 0.00 0.00 0.00 0.00 0.00 0.00 0.00 0.00 0.00 0.00 0.00 0.00 0.00 0.00 0.00 0.00 0.00 0.00 0.00 0.00 0.01 0.01 0.01 0.00
0.00 0.00 0.00 0.00 0.00 0.00 0.00 0.00 0.00 0.00 0.00 0.00 0.00 0.00 0.00 0.00 0.00 0.00 0.00 0.00 0.00 0.00 0.00 0.00 0.00 0.00 0.00 0.00 0.00 0.00 0.00 0.00 0.00 0.00 0.00 0.00 0.00 0.00 0.00 0.01 0.01 0.00 0.00
0.00 0.00 0.00 0.00 0.00 0.00 0.00 0.00 0.00 0.00 0.00 0.00 0.00 0.00 0.00 0.00 0.00 0.00 0.00 0.00 0.00 0.00 0.00 0.00 0.00 0.00 0.00 0.00 0.00 0.00 0.00 0.00 0.00 0.00 0.00 0.00 0.00 0.00 0.00 0.02 0.04 0.01 0.01
0.00 0.00 0.00 0.00 0.00 0.00 0.00 0.00 0.00 0.00 0.00 0.00 0.00 0.00 0.00 0.00 0.00 0.00 0.00 0.00 0.00 0.00 0.00 0.00 0.00 0.00 0.00 0.00 0.00 0.00 0.00 0.00 0.00 0.00 0.00 0.00 0.00 0.00 0.00 0.01 0.04 0.02 0.01
0.00 0.00 0.00 0.00 0.00 0.00 0.00 0.00 0.00 0.00 0.00 0.00 0.00 0.00 0.00 0.00 0.00 0.00 0.00 0.00 0.00 0.00 0.00 0.00 0.00 0.00 0.00 0.00 0.00 0.00 0.00 0.00 0.00 0.00 0.00 0.00 0.00 0.00 0.00 0.01 0.02 0.02 0.01
0.00 0.00 0.00 0.00 0.00 0.00 0.00 0.00 0.00 0.00 0.00 0.00 0.00 0.00 0.00 0.00 0.00 0.00 0.00 0.00 0.00 0.00 0.00 0.00 0.00 0.00 0.00 0.00 0.00 0.00 0.00 0.00 0.00 0.00 0.00 0.00 0.00 0.00 0.00 0.00 0.00 0.00 0.01
0.00 0.00 0.00 0.00 0.00 0.00 0.00 0.00 0.00 0.00 0.00 0.00 0.00 0.00 0.00 0.00 0.00 0.00 0.00 0.00 0.00 0.00 0.00 0.00 0.00 0.00 0.00 0.00 0.00 0.00 0.00 0.00 0.00 0.00 0.00 0.00 0.00 0.00 0.00 0.00 0.00 0.00 0.00
0.00 0.00 0.00 0.00 0.00 0.00 0.00 0.00 0.00 0.00 0.00 0.00 0.00 0.00 0.00 0.00 0.00 0.00 0.00 0.00 0.00 0.00 0.00 0.00 0.00 0.00 0.00 0.00 0.00 0.00 0.00 0.00 0.00 0.00 0.00 0.00 0.00 0.00 0.00 0.00 0.00 0.00 0.00
0.00 0.00 0.00 0.00 0.00 0.00 0.00 0.00 0.00 0.00 0.00 0.00 0.00 0.00 0.00 0.00 0.00 0.00 0.00 0.00 0.00 0.00 0.00 0.00 0.00 0.00 0.00 0.00 0.00 0.00 0.00 0.00 0.00 0.00 0.00 0.00 0.00 0.00 0.00 0.00 0.00 0.00 0.00
0.00 0.00 0.00 0.00 0.00 0.00 0.00 0.00 0.00 0.00 0.00 0.00 0.00 0.00 0.00 0.00 0.00 0.00 0.00 0.00 0.00 0.00 0.00 0.00 0.00 0.00 0.00 0.00 0.00 0.00 0.00 0.00 0.00 0.00 0.00 0.00 0.00 0.00 0.00 0.00 0.00 0.00 0.00
0.00 0.00 0.00 0.00 0.00 0.00 0.00 0.00 0.00 0.00 0.00 0.00 0.00 0.00 0.00 0.00 0.00 0.00 0.00 0.00 0.00 0.00 0.00 0.00 0.00 0.00 0.00 0.00 0.00 0.00 0.00 0.00 0.00 0.00 0.00 0.00 0.00 0.00 0.00 0.00 0.00 0.00 0.00
0.00 0.00 0.00 0.00 0.00 0.00 0.00 0.00 0.00 0.00 0.00 0.00 0.00 0.00 0.00 0.00 0.00 0.00 0.00 0.00 0.00 0.00 0.00 0.00 0.00 0.00 0.00 0.00 0.00 0.00 0.00 0.00 0.00 0.00 0.00 0.00 0.00 0.00 0.00 0.00 0.00 0.00 0.00
0.00 0.00 0.00 0.00 0.00 0.00 0.00 0.00 0.00 0.00 0.00 0.00 0.00 0.00 0.00 0.00 0.00 0.00 0.00 0.00 0.00 0.00 0.00 0.00 0.00 0.00 0.00 0.00 0.00 0.00 0.00 0.00 0.00 0.00 0.00 0.00 0.00 0.00 0.00 0.00 0.00 0.00 0.00
0.00 0.00 0.00 0.00 0.00 0.00 0.00 0.00 0.00 0.00 0.00 0.00 0.00 0.00 0.00 0.00 0.00 0.00 0.00 0.00 0.00 0.00 0.00 0.00 0.00 0.00 0.00 0.00 0.00 0.00 0.00 0.00 0.00 0.00 0.00 0.00 0.00 0.00 0.00 0.00 0.00 0.00 0.00
0.00 0.00 0.00 0.00 0.00 0.00 0.00 0.00 0.00 0.00 0.00 0.00 0.00 0.00 0.00 0.00 0.00 0.00 0.00 0.00 0.00 0.00 0.00 0.00 0.00 0.00 0.00 0.00 0.00 0.00 0.00 0.00 0.00 0.00 0.00 0.00 0.00 0.00 0.00 0.00 0.00 0.00 0.00
0.00 0.00 0.00 0.00 0.00 0.00 0.00 0.00 0.00 0.00 0.00 0.00 0.00 0.00 0.00 0.00 0.00 0.00 0.00 0.00 0.00 0.00 0.00 0.00 0.00 0.00 0.00 0.00 0.00 0.00 0.00 0.00 0.00 0.00 0.00 0.00 0.00 0.00 0.00 0.00 0.00 0.00 0.00
0.00 0.00 0.00 0.00 0.00 0.00 0.00 0.00 0.00 0.00 0.00 0.00 0.00 0.00 0.00 0.00 0.00 0.00 0.00 0.00 0.00 0.00 0.00 0.00 0.00 0.00 0.00 0.00 0.00 0.00 0.00 0.00 0.00 0.00 0.00 0.00 0.00 0.00 0.00 0.00 0.00 0.00 0.00
0.00 0.00 0.00 0.00 0.00 0.00 0.00 0.00 0.00 0.00 0.00 0.00 0.00 0.00 0.00 0.00 0.00 0.00 0.00 0.00 0.00 0.00 0.00 0.00 0.00 0.00 0.00 0.00 0.00 0.00 0.00 0.00 0.00 0.00 0.00 0.00 0.00 0.00 0.00 0.00 0.00 0.00 0.00
0.00 0.00 0.00 0.00 0.00 0.00 0.00 0.00 0.00 0.00 0.00 0.00 0.00 0.00 0.00 0.00 0.00 0.00 0.00 0.00 0.00 0.00 0.00 0.00 0.00 0.00 0.00 0.00 0.00 0.00 0.00 0.00 0.00 0.00 0.00 0.00 0.00 0.00 0.00 0.00 0.00 0.00 0.00
MSLP
1009.30 1010.70 1011.92 1012.92 1013.81 1014.49 1014.97 1015.47 1015.99 1016.43 1016.45 1016.76 1016.91 1017.22 1017.38 1017.63 1017.67 1017.91 1017.73 1017.65 1017.70 1017.77 1018.02 1018.04 1018.02 1017.88 1017.68 1017.17 1016.88 1016.50 1015.92 1015.81 1015.17 1014.67 1013.42 1013.15 1012.97 1012.72 1012.03 1011.36 1010.70 1010.50 1009.71
1009.97 1011.13 1012.35 1013.35 1014.14 1014.82 1015.50 1016.14 1016.46 1016.75 1016.74 1017.03 1017.10 1017.34 1017.58 1017.84 1018.09 1018.05 1017.99 1017.97 1018.02 1018.04 1018.25 1018.26 1018.19 1018.14 1018.06 1017.74 1017.44 1016.83 1016.14 1015.97 1015.46 1014.46 1013.77 1013.39 1013.13 1012.66 1011.94 1011.63 1011.17 1010.91 1009.77
1010.26 1011.54 1012.78 1013.70 1014.68 1015.38 1016.00 1016.56 1016.70 1016.98 1017.10 1017.22 1017.44 1017.77 1017.95 1018.16 1018.40 1018.33 1018.23 1018.33 1018.40 1018.51 1018.65 1018.55 1018.52 1018.70 1018.75 1018.69 1018.37 1017.53 1016.81 1016.25 1015.17 1014.78 1014.05 1013.82 1013.31 1012.66 1012.12 1011.83 1011.44 1010.92 1009.51
1010.77 1012.04 1013.21 1014.13 1015.00 1015.84 1016.38 1016.69 1017.04 1017.38 1017.57 1017.77 1017.95 1018.15 1018.38 1018.67 1018.87 1018.70 1018.70 1018.78 1018.61 1018.68 1018.85 1018.80 1018.84 1019.15 1019.30 1019.23 1018.89 1018.23 1017.53 1016.77 1015.76 1015.12 1014.61 1014.38 1013.61 1013.25 1013.07 1012.38 1011.47 1010.93 1009.60
1011.25 1012.52 1013.67 1014.67 1015.45 1016.17 1016.61 1016.85 1017.57 1017.78 1018.05 1018.13 1018.32 1018.62 1019.17 1019.75 1020.54 1020.39 1019.53 1019.15 1018.93 1018.83 1019.00 1018.99 1018.99 1019.33 1019.57 1019.69 1019.51 1018.84 1018.18 1017.42 1016.74 1016.18 1015.45 1015.52 1014.77 1014.24 1013.72 1013.03 1012.24 1011.10 1009.93
1011.84 1012.99 1014.12 1014.90 1015.77 1016.29 1017.00 1017.32 1017.75 1018.13 1018.43 1018.46 1018.69 1019.10 1019.83 1020.89 1021.92 1021.55 1020.92 1019.68 1019.49 1019.29 1019.37 1019.48 1019.45 1019.40 1019.64 1019.78 1019.47 1018.92 1018.50 1018.02 1017.39 1017.17 1016.76 1016.15 1015.42 1014.86 1014.29 1013.55 1012.61 1011.54 1010.02
1012.24 1013.33 1014.14 1015.11 1015.81 1016.45 1017.09 1017.45 1018.10 1018.62 1018.88 1018.92 1019.15 1019.62 1020.51 1021.76 1022.43 1022.00 1021.57 1020.20 1019.79 1019.77 1019.89 1020.18 1020.21 1020.30 1020.62 1020.23 1019.36 1018.26 1017.34 1017.48 1017.74 1017.46 1016.93 1016.23 1015.67 1015.06 1014.57 1013.69 1013.03 1012.27 1010.94
1012.62 1013.49 1014.47 1015.18 1015.84 1016.60 1017.11 1017.86 1018.51 1018.89 1019.22 1019.55 1019.80 1020.07 1020.88 1022.39 1022.79 1022.37 1021.73 1020.88 1019.95 1019.81 1020.05 1020.68 1020.92 1020.97 1021.58 1021.05 1019.65 1017.93 1017.42 1017.31 1017.28 1016.83 1016.43 1015.98 1015.54 1015.19 1014.68 1013.63 1012.83 1012.45 1011.23
1013.01 1013.76 1014.63 1015.40 1016.11 1016.77 1017.47 1018.14 1018.61 1019.04 1019.43 1019.70 1020.01 1020.47 1021.01 1022.42 1022.98 1022.56 1021.94 1020.18 1019.97 1019.77 1020.05 1021.20 1021.45 1021.59 1022.16 1021.44 1019.85 1018.58 1017.81 1017.23 1017.01 1016.22 1015.97 1015.74 1015.45 1015.20 1014.77 1013.92 1013.01 1012.22 1011.61
1013.30 1014.11 1015.01 1015.79 1016.41 1017.05 1017.77 1018.35 1018.82 1019.22 1019.36 1019.60 1020.16 1020.85 1021.51 1022.34 1023.32 1022.83 1022.30 1020.60 1020.20 1019.95 1019.96 1021.53 1021.93 1022.32 1022.20 1021.61 1020.43 1019.22 1018.44 1017.78 1017.22 1016.07 1015.16 1014.78 1014.84 1014.16 1014.23 1013.71 1013.30 1012.87 1012.31
1013.80 1014.63 1015.68 1016.28 1016.86 1017.57 1018.28 1018.71 1019.35 1019.14 1019.76 1020.01 1020.44 1021.06 1021.73 1022.28 1023.20 1023.02 1022.71 1021.97 1021.64 1020.55 1020.47 1021.05 1021.64 1021.87 1021.90 1021.53 1020.68 1019.74 1018.96 1018.19 1017.08 1015.50 1014.99 1014.90 1014.33 1013.96 1013.67 1013.60 1013.54 1013.35 1012.95
1014.24 1015.20 1016.13 1016.82 1017.33 1018.10 1018.62 1019.01 1019.36 1019.82 1020.15 1020.46 1020.61 1020.64 1021.23 1022.19 1022.69 1023.09 1023.03 1022.88 1022.48 1021.48 1021.41 1021.98 1022.07 1021.82 1021.42 1021.18 1020.49 1019.65 1018.62 1017.74 1016.62 1015.91 1015.37 1015.23 1014.89 1014.29 1013.86 1013.48 1013.32 1013.33 1013.25
1014.76 1015.79 1016.63 1017.24 1017.91 1018.60 1018.87 1019.15 1019.53 1019.81 1019.91 1020.22 1020.20 1020.24 1020.65 1021.21 1022.18 1022.83 1022.92 1022.73 1022.24 1022.00 1021.96 1022.33 1021.93 1021.58 1020.92 1020.32 1020.01 1019.43 1018.62 1018.01 1017.22 1016.55 1016.07 1015.62 1015.01 1014.40 1013.68 1013.58 1013.24 1013.15 1012.77
1015.17 1016.24 1017.07 1017.61 1018.08 1018.47 1018.65 1018.85 1019.28 1020.27 1020.37 1020.35 1020.47 1020.85 1021.15 1021.85 1023.17 1023.50 1023.01 1022.75 1021.86 1022.05 1021.92 1021.58 1021.35 1021.08 1020.57 1020.18 1019.63 1019.26 1019.10 1018.51 1017.78 1017.17 1016.65 1016.15 1015.47 1014.63 1014.02 1013.55 1013.78 1013.52 1012.95
1015.74 1016.50 1017.24 1017.88 1018.15 1018.86 1020.42 1021.12 1021.23 1023.11 1023.14 1022.20 1022.35 1021.84 1022.78 1022.83 1024.73 1025.24 1024.95 1024.26 1023.93 1023.20 1023.00 1021.48 1021.20 1020.86 1020.42 1020.06 1019.80 1019.52 1019.26 1018.93 1018.29 1017.73 1017.20 1016.47 1015.73 1015.17 1014.61 1014.06 1013.91 1014.27 1013.89
1015.86 1016.56 1017.18 1017.70 1018.26 1019.25 1020.57 1022.22 1023.69 1024.03 1024.08 1024.09 1024.04 1023.82 1024.40 1024.97 1025.38 1025.35 1024.99 1024.63 1024.07 1023.38 1022.57 1021.97 1021.62 1021.29 1020.97 1020.64 1020.30 1019.98 1019.69 1019.57 1019.04 1018.33 1017.77 1017.19 1016.54 1015.82 1015.30 1014.58 1014.24 1014.14 1014.14
1015.70 1016.79 1017.32 1017.68 1018.13 1018.94 1019.92 1021.04 1022.78 1024.52 1024.74 1024.87 1024.95 1024.89 1025.09 1025.54 1025.42 1025.20 1024.98 1024.60 1023.91 1023.24 1022.66 1022.28 1022.15 1022.03 1021.73 1021.37 1021.01 1020.63 1020.33 1020.25 1019.65 1018.87 1018.33 1017.80 1017.25 1016.59 1015.93 1015.23 1014.89 1014.83 1014.21
1016.34 1017.16 1017.22 1017.47 1017.99 1018.46 1018.97 1019.99 1021.33 1022.55 1023.43 1024.65 1025.51 1025.34 1025.63 1025.49 1025.16 1024.89 1024.53 1024.27 1023.25 1023.46 1023.02 1022.84 1022.80 1022.73 1022.52 1022.17 1021.89 1021.34 1020.95 1020.71 1020.17 1019.52 1018.97 1018.44 1017.97 1017.24 1016.59 1016.02 1015.56 1015.40 1014.93
1016.59 1016.90 1016.99 1017.54 1017.86 1018.19 1018.74 1019.57 1021.04 1022.12 1022.73 1023.73 1024.88 1025.25 1025.50 1025.35 1025.04 1024.37 1024.04 1023.70 1023.56 1023.60 1023.50 1023.30 1023.45 1023.41 1023.22 1022.91 1022.61 1021.97 1021.57 1021.38 1021.01 1020.25 1019.67 1019.06 1018.68 1017.90 1017.32 1016.78 1016.31 1015.75 1015.58
1016.82 1017.33 1017.30 1017.42 1018.34 1018.43 1018.79 1019.32 1020.59 1021.68 1022.37 1022.89 1023.26 1023.60 1024.27 1024.91 1024.48 1024.24 1024.15 1024.16 1024.01 1024.09 1024.07 1023.72 1023.80 1023.97 1023.84 1023.61 1023.19 1022.60 1022.23 1021.94 1021.64 1021.09 1020.44 1019.83 1019.36 1018.63 1017.97 1017.38 1016.91 1016.32 1016.03
1017.15 1017.82 1018.20 1017.52 1018.04 1018.29 1018.73 1019.15 1020.23 1021.26 1021.74 1022.48 1022.98 1023.97 1024.50 1023.99 1023.80 1023.95 1024.19 1024.50 1024.69 1024.68 1024.68 1024.33 1024.19 1024.33 1024.28 1024.14 1023.86 1023.43 1023.22 1022.98 1022.61 1022.14 1021.36 1020.60 1019.92 1019.39 1018.64 1018.12 1017.55 1017.09 1016.60
1017.26 1017.75 1017.70 1017.67 1018.03 1018.68 1018.98 1019.22 1020.22 1021.08 1021.79 1022.45 1023.14 1024.35 1024.67 1024.10 1024.08 1024.04 1024.41 1024.62 1024.99 1025.26 1025.28 1025.08 1024.78 1024.95 1024.85 1024.82 1024.67 1024.54 1024.43 1024.28 1023.84 1023.23 1022.21 1021.29 1020.54 1020.25 1019.35 1018.76 1018.25 1017.85 1017.28
1017.22 1017.58 1017.68 1017.81 1018.47 1019.38 1019.46 1019.46 1020.30 1021.24 1021.75 1022.35 1023.05 1023.74 1023.86 1024.15 1024.34 1024.44 1024.59 1024.87 1025.16 1025.51 1025.73 1025.69 1025.62 1025.63 1025.79 1025.64 1025.69 1025.73 1025.86 1025.81 1025.22 1024.12 1023.29 1021.99 1021.23 1021.15 1020.18 1019.50 1019.09 1018.53 1018.16
1017.29 1017.54 1017.73 1018.03 1018.74 1019.36 1019.57 1019.89 1020.48 1021.11 1021.53 1022.23 1022.64 1023.23 1023.85 1024.17 1024.42 1024.97 1025.02 1025.20 1025.46 1025.73 1025.97 1026.09 1026.31 1026.48 1026.67 1026.68 1026.82 1026.73 1027.10 1027.06 1026.13 1025.19 1024.36 1022.58 1021.99 1021.72 1021.04 1020.25 1020.00 1019.25 1018.88
1017.68 1017.63 1017.81 1018.28 1019.08 1019.28 1019.96 1020.56 1020.76 1021.05 1021.69 1022.21 1022.85 1023.33 1023.72 1024.19 1024.52 1024.91 1025.29 1025.44 1025.67 1025.95 1026.35 1026.49 1026.67 1026.93 1027.29 1027.75 1027.89 1027.93 1028.00 1027.60 1026.89 1026.53 1024.96 1023.28 1022.84 1022.36 1022.00 1021.11 1020.80 1020.00 1019.66
1018.45 1018.29 1018.60 1019.22 1019.63 1020.06 1020.69 1020.90 1021.14 1021.43 1021.86 1022.56 1022.93 1023.26 1023.79 1024.20 1024.78 1025.13 1025.46 1025.66 1025.89 1026.17 1026.39 1026.84 1027.26 1027.56 1027.76 1028.28 1028.76 1028.70 1028.28 1027.77 1027.08 1026.35 1025.77 1023.87 1023.42 1022.93 1022.85 1022.11 1021.57 1020.89 1020.39
Thickness
5743 5736 5728 5723 5718 5714 5711 5707 5703 5700 5701 5698 5696 5691 5686 5680 5676 5670 5668 5664 5658 5652 5644 5639 5632 5628 5625 5624 5620 5617 5614 5608 5601 5598 5602 5595 5585 5576 5571 5566 5559 5549 5542
5732 5728 5721 5716 5712 5707 5702 5698 5697 5695 5697 5693 5691 5686 5681 5675 5669 5666 5662 5657 5651 5645 5638 5633 5629 5625 5620 5617 5613 5612 5611 5604 5600 5598 5597 5590 5582 5576 5570 5561 5553 5542 5540
5726 5720 5713 5709 5703 5699 5695 5691 5692 5690 5689 5687 5684 5678 5674 5669 5663 5661 5657 5651 5644 5638 5632 5628 5624 5617 5610 5606 5603 5604 5603 5600 5602 5596 5592 5585 5580 5577 5569 5557 5549 5541 5540
5719 5712 5706 5701 5696 5690 5688 5687 5685 5682 5680 5678 5674 5671 5666 5662 5658 5656 5651 5644 5641 5635 5629 5624 5618 5611 5605 5600 5597 5596 5596 5595 5596 5592 5587 5580 5577 5570 5561 5555 5551 5542 5540
5711 5704 5697 5693 5689 5684 5682 5682 5676 5674 5671 5669 5666 5663 5656 5651 5643 5640 5642 5640 5636 5631 5625 5620 5616 5608 5601 5594 5590 5589 5589 5588 5585 5582 5581 5570 5568 5562 5556 5550 5544 5541 5538
5701 5695 5689 5687 5681 5679 5674 5673 5670 5666 5662 5662 5659 5655 5648 5640 5628 5627 5626 5634 5630 5625 5619 5614 5610 5606 5599 5591 5586 5585 5582 5580 5579 5573 5568 5564 5562 5558 5552 5547 5544 5539 5541
5693 5687 5684 5680 5676 5673 5669 5667 5661 5656 5654 5653 5651 5646 5639 5629 5620 5620 5620 5629 5625 5619 5613 5606 5601 5597 5588 5585 5587 5588 5591 5581 5572 5569 5566 5564 5560 5557 5551 5548 5541 5535 5534
5685 5682 5677 5673 5671 5666 5663 5657 5653 5650 5646 5643 5640 5638 5631 5619 5613 5614 5615 5619 5621 5617 5610 5600 5594 5590 5580 5578 5584 5591 5588 5581 5574 5571 5567 5564 5561 5556 5551 5550 5545 5536 5536
5676 5674 5670 5666 5662 5659 5654 5650 5647 5644 5640 5637 5633 5629 5625 5615 5607 5608 5611 5623 5618 5614 5608 5594 5589 5585 5574 5575 5583 5584 5582 5579 5574 5575 5571 5566 5561 5556 5551 5550 5546 5543 5538
5669 5666 5662 5658 5655 5651 5647 5643 5640 5637 5635 5633 5626 5620 5612 5609 5601 5601 5602 5615 5612 5608 5606 5589 5582 5577 5573 5573 5576 5577 5576 5574 5570 5573 5574 5571 5563 5560 5553 5548 5544 5538 5536
5662 5659 5652 5649 5646 5642 5637 5635 5630 5632 5627 5623 5618 5612 5607 5603 5597 5595 5593 5599 5596 5600 5597 5591 5584 5576 5572 5570 5569 5571 5570 5567 5571 5578 5576 5569 5567 5561 5556 5548 5542 5537 5531
5654 5648 5643 5640 5637 5632 5629 5627 5625 5622 5619 5614 5612 5611 5606 5598 5593 5589 5586 5584 5584 5589 5585 5579 5576 5572 5573 5568 5568 5568 5569 5569 5575 5573 5571 5565 5560 5558 5555 5550 5543 5536 5529
5643 5637 5633 5630 5626 5622 5622 5622 5620 5619 5618 5614 5613 5611 5607 5602 5594 5585 5581 5579 5579 5580 5577 5573 5570 5571 5570 5570 5566 5566 5568 5567 5566 5565 5562 5559 5558 5557 5556 5549 5544 5537 5534
5634 5628 5623 5620 5619 5619 5620 5621 5620 5613 5613 5613 5609 5603 5601 5593 5582 5576 5577 5577 5575 5574 5571 5573 5570 5568 5567 5565 5567 5565 5560 5560 5559 5557 5555 5552 5551 5553 5551 5549 5540 5535 5533
5623 5619 5616 5613 5614 5610 5600 5598 5601 5584 5586 5596 5590 5594 5583 5584 5564 5558 5558 5561 5558 5560 5558 5568 5565 5564 5563 5562 5559 5557 5554 5551 5551 5549 5546 5546 5546 5545 5543 5543 5538 5528 5525
5617 5614 5612 5610 5608 5602 5595 5585 5575 5573 5572 5571 5570 5572 5566 5559 5552 5550 5551 5551 5551 5553 5558 5556 5554 5552 5550 5549 5548 5546 5544 5540 5539 5539 5538 5536 5536 5536 5534 5535 5532 5527 5521
5615 5608 5606 5605 5603 5599 5594 5589 5578 5562 5560 5558 5557 5556 5553 5548 5546 5545 5544 5543 5546 5550 5550 5547 5543 5539 5537 5536 5535 5534 5532 5528 5528 5530 5529 5527 5525 5525 5524 5525 5522 5517 5517
5604 5598 5601 5600 5598 5596 5595 5590 5581 5573 5567 5556 5546 5545 5542 5540 5540 5540 5541 5540 5547 5542 5539 5535 5530 5526 5524 5523 5522 5522 5521 5518 5518 5518 5518 5516 5513 5513 5513 5512 5510 5506 5504
5594 5595 5596 5593 5593 5592 5589 5585 5573 5565 5562 5553 5543 5538 5534 5534 5534 5535 5536 5538 5536 5531 5527 5525 5519 5514 5512 5511 5510 5511 5509 5506 5504 5505 5504 5504 5500 5500 5498 5497 5495 5489 5487
5587 5582 5587 5588 5582 5583 5581 5579 5568 5560 5555 5552 5549 5544 5537 5532 5534 5533 5529 5525 5524 5519 5515 5515 5510 5504 5501 5499 5498 5498 5497 5494 5491 5490 5489 5488 5485 5485 5484 5483 5480 5480 5476
5577 5574 5568 5580 5577 5577 5574 5572 5563 5555 5552 5545 5540 5530 5522 5530 5530 5525 5520 5514 5509 5505 5502 5502 5499 5494 5490 5487 5485 5484 5481 5478 5475 5472 5473 5472 5471 5468 5468 5466 5465 5463 5463
5568 5567 5570 5572 5570 5566 5566 5563 5555 5548 5542 5536 5531 5519 5514 5520 5518 5517 5511 5506 5499 5492 5489 5487 5486 5481 5478 5474 5470 5467 5463 5458 5456 5454 5455 5456 5455 5450 5451 5451 5450 5448 5450
5562 5561 5562 5563 5558 5551 5554 5553 5547 5540 5537 5531 5525 5518 5516 5512 5508 5505 5502 5497 5490 5483 5477 5474 5471 5467 5462 5458 5453 5447 5441 5437 5435 5435 5435 5439 5438 5432 5435 5436 5435 5435 5434
5555 5554 5555 5555 5550 5546 5545 5543 5540 5535 5532 5525 5522 5516 5508 5504 5500 5492 5490 5486 5480 5474 5468 5463 5457 5451 5446 5441 5435 5430 5423 5418 5417 5416 5416 5422 5422 5419 5420 5423 5421 5423 5421
5545 5547 5548 5546 5540 5541 5535 5532 5531 5528 5523 5518 5511 5506 5501 5495 5491 5485 5479 5475 5469 5463 5456 5451 5445 5438 5432 5424 5418 5412 5407 5405 5401 5399 5401 5407 5406 5407 5406 5410 5408 5410 5408
5532 5535 5535 5531 5529 5527 5522 5522 5521 5517 5513 5507 5503 5499 5492 5487 5480 5475 5468 5464 5458 5453 5446 5439 5431 5424 5418 5410 5402 5397 5395 5393 5391 5393 5391 5396 5396 5397 5393 5395 5395 5397 5397